Location: Unspecified
(42.2730°N, 83.7130°W)
Time: 13:58:56
(UTC+00:00)

Cosmos 2263 Rocket - Pass Details

Date: 14 December 2025
Orbit: 821 x 849 km, 71.0° (Epoch: 17 January)

Event Time Altitude Azimuth Distance (km) Brightness Sun altitude
Rises 22:33:55 0° 341° (NNW) 3,409 5.3 -5.8°
Reaches altitude 10° 22:36:31 10° 348° (NNW) 2,474 4.5 -6.3°
Maximum altitude 22:41:53 42° 59° (ENE) 1,198 2.6 -7.1°
Drops below altitude 10° 22:47:14 10° 129° (SE) 2,468 4.4 -8.0°
Sets 22:49:49 0° 137° (SE) 3,400 5.1 -8.5°
